Location: Czekanka
(50.4925°N, 19.2643°E)
Time: 06:58:09
(UTC+00:00)

SL-16 R/B - Pass Details

Date: 21 September 2024
Orbit: 842 x 846 km, 71.0° (Epoch: 09 October)

Event Time Altitude Azimuth Distance (km) Brightness Sun altitude
Rises 01:53:41 0° 332° (NNW) 3,412 5.4 -24.0°
Reaches altitude 10° 01:56:26 10° 343° (NNW) 2,474 4.8 -23.6°
Maximum altitude 02:01:27 31° 45° (NE) 1,437 4.0 -22.9°
Drops below altitude 10° 02:06:27 10° 107° (ESE) 2,462 5.1 -22.3°
Sets 02:09:10 0° 118° (ESE) 3,393 5.8 -21.9°
